Location: Unspecified
(0.0000°N, 0.0000°E)
Time: 14:01:01
(UTC+00:00)

ISS - Pass Details

Date: 15 September 2019
Orbit: 411 x 421 km, 51.6° (Epoch: 18 September)

Event Time Altitude Azimuth Distance (km) Brightness Sun altitude
Rises 18:23:33 0° 215° (SW) 2,345 0.5 -7.1°
Reaches altitude 10° 18:25:38 10° 214° (SW) 1,479 -0.5 -7.6°
Maximum altitude 18:28:57 86° 128° (SE) 415 -3.8 -8.4°
Drops below altitude 10° 18:32:15 10° 37° (NE) 1,468 -1.3 -9.2°
Enters shadow 18:34:16 - 36° (NE) 2,304 -0.3 -9.7°
